{"data":{"norad_id":47767,"epoch":"2026-05-25T04:08:54.322944Z","epoch_age_seconds":53423,"freshness":"FRESH","line1":"1 47767U 21017AX  26145.17285096  .00067549  00000+0  11770-2 0  9996","line2":"2 47767  53.1554 201.9337 0006764 358.0161   2.0821 15.50123823289695","mean_motion":15.50123823,"eccentricity":0.0006764,"inclination_deg":53.1554,"raan_deg":201.9337,"arg_perigee_deg":358.0161,"mean_anomaly_deg":2.0821,"bstar":0.001177,"rev_number":28969,"period_min":92.895804750173,"perigee_km":411.7684172714,"apogee_km":420.96001851896,"semimajor_km":6794.5012178952,"source":"CELESTRAK","updated_at":"2026-05-25T13:38:16.569534Z"}}